Location: Stanford
(52.2833°N, 2.4333°W)
Time: 19:15:47
(UTC+00:00)

NOSS 3-4 (A) - Pass Details

Date: 22 January 2021
Orbit: 877 x 1335 km, 63.4° (Epoch: 16 February)

Event Time Altitude Azimuth Distance (km) Brightness Sun altitude
Rises 18:14:34 0° 265° (W) 3,525 8.3 -14.3°
Reaches altitude 10° 18:17:12 10° 273° (W) 2,623 7.0 -14.7°
Maximum altitude 18:22:51 38° 341° (NNW) 1,459 4.5 -15.5°
Enters shadow 18:27:41 16° 42° (NE) 2,435 5.1 -16.2°
